Home > Time Zones > World Clock > Weather > Norway > Moss > Past weeks

Flag for Norway Weather past 2 weeks in Moss, Norway

Now
48 °F

Rain. Broken clouds.


Feels Like: 43 °F
Forecast: 53 / 56 °F
Wind: 13 mph from South

Location: Rygge

Current Time: Oct 23, 2014 at 5:16:31 PM

Latest Report: Oct 23, 2014 at 4:20 PM


Visibility: 2 mi

Pressure: 30.01 "Hg

Humidity: 100%

Dew point: 48 °F

Location of MossLocation

Historic Weather in Moss — Graph

°F

Moss temperature yesterday

Maximum temperature yesterday: 50 °F (at 1:50 AM)
Minimum temperature yesterday: 41 °F (at 6:20 PM)
Average temperature yesterday: 45 °F

Past Weeks' High & Low Weather Summary

 TemperatureHumidityPressure
High61 °F (Oct 20, 3:50 PM)100% (Oct 9, 12:20 AM)30.09 "Hg (Oct 9, 12:20 AM)
Low34 °F (Oct 13, 6:50 AM)59% (Oct 20, 3:50 PM)29.30 "Hg (Oct 20, 4:20 AM)
Average47 °F91%29.77 "Hg
* Reported Oct 8 3:20 PM — Oct 23 3:50 PM, Moss, Weather by CustomWeather, © 2014

Note: Actual official high and low records may vary slightly from our data, if they occured in-between our weather recording intervals... More about our weather records

Advertising

Moss weather history for previous 24 hours

 ConditionsComfort  
Time TempWeatherWind HumidityBarometerVisibility
3:50 PM
Oct 23
48 °FRain. Broken clouds.10 mph100%30.01 "Hg2 mi
3:20 PM48 °FLight rain. Partly sunny.6 mph94%30.01 "Hg4 mi
2:50 PM48 °FDrizzle. Partly sunny.7 mph94%30.01 "HgN/A
2:20 PM46 °FLight rain. Overcast.9 mph93%30.01 "Hg6 mi
1:50 PM48 °FLight rain. Partly sunny.13 mph87%30.01 "HgN/A
1:20 PM48 °FDrizzle. Broken clouds.14 mph94%30.01 "HgN/A
12:50 PM48 °FPartly sunny.14 mph94%30.01 "HgN/A
12:20 PM46 °FDrizzle. Low clouds.13 mph100%30.01 "HgN/A
11:50 AM46 °FRain. Low clouds.10 mph93%30.01 "Hg3 mi
11:20 AM45 °FLight rain. Low clouds.14 mph100%30.01 "Hg3 mi
10:49 AM45 °FLight rain. Partly sunny.14 mph100%30.01 "Hg3 mi
10:20 AM43 °FDrizzle. Partly sunny.12 mph100%30.01 "HgN/A
9:50 AM43 °FDrizzle. Low clouds.12 mph100%30.01 "Hg6 mi
9:20 AM43 °FLight rain. Low clouds.12 mph93%30.01 "Hg6 mi
8:50 AM43 °FDrizzle. Low clouds.12 mph93%30.04 "HgN/A
8:20 AM43 °FLight rain. Low clouds.13 mph93%30.01 "Hg5 mi
7:50 AM41 °FRain. Passing clouds.15 mph100%30.04 "Hg4 mi
7:20 AM41 °FLight rain. Low clouds.13 mph100%30.04 "Hg2 mi
6:50 AM41 °FLow clouds.10 mph100%30.04 "Hg4 mi
6:20 AM41 °FLow clouds.12 mph100%30.04 "Hg4 mi
5:50 AM41 °FDrizzle. Low clouds.10 mph100%30.04 "Hg5 mi
5:20 AM41 °FDrizzle. Low clouds.10 mph100%30.04 "HgN/A
4:50 AM41 °FLow clouds.8 mph100%30.07 "Hg3 mi
4:20 AM41 °FMostly cloudy.10 mph93%30.07 "Hg5 mi
3:50 AM41 °FLow clouds.10 mph93%30.07 "Hg4 mi
3:20 AM41 °FLow clouds.10 mph93%30.07 "HgN/A
2:50 AM41 °FLow clouds.8 mph93%30.07 "HgN/A
2:20 AM41 °FDrizzle. Low clouds.10 mph93%30.07 "Hg4 mi
1:50 AM41 °FLow clouds.9 mph93%30.07 "Hg3 mi
1:20 AM41 °FLight rain. Low clouds.9 mph93%30.07 "HgN/A
12:50 AM41 °FDrizzle. Mostly cloudy.9 mph93%30.07 "HgN/A
12:20 AM41 °FLow clouds.8 mph93%30.07 "HgN/A
11:50 PM
Oct 22
41 °FDrizzle. Overcast.9 mph93%30.07 "HgN/A
11:20 PM41 °FLight rain. Low clouds.8 mph93%30.07 "HgN/A
10:50 PM41 °FDrizzle. Low clouds.7 mph93%30.07 "HgN/A
10:20 PM41 °FLight rain. Low clouds.7 mph93%30.07 "HgN/A
9:50 PM41 °FPassing clouds.7 mph93%30.07 "HgN/A
9:20 PM41 °FPassing clouds.8 mph93%30.07 "HgN/A
8:50 PM41 °FDrizzle. Mostly cloudy.8 mph93%30.04 "HgN/A
8:20 PM41 °FLight rain. Passing clouds.8 mph93%30.04 "HgN/A
7:20 PM41 °FPartly cloudy.5 mph93%30.04 "Hg5 mi
6:50 PM41 °FPartly cloudy.9 mph93%30.01 "Hg3 mi
6:20 PM41 °FDrizzle. Partly sunny.9 mph93%30.01 "Hg3 mi
5:50 PM43 °FLight rain. Overcast.8 mph87%30.01 "HgN/A
5:20 PM43 °FOvercast.10 mph87%30.01 "HgN/A
Weather by CustomWeather, © 2014

See weather overviewHow to use our weather pages